www.pogodaiklimat.ru

Погода и климат >> Архив погоды >> Иран >> Kish Island


ПОГОДА в Kish Island

  • Прогноз погоды в Kish Island
  • Монитор погоды в Kish Island
  • Климат города

АРХИВ ПОГОДЫ в Kish Island

Время (UTC), дата Ветер
(напр.,м/с)
 
Видим.   Явления Облачность Т
(С)
Тd
(С)
f
(%)
Тe
(С)
Тes
(С)
Комфортность P
(гПа)
Po
(гПа)
Тmin
(С)
Tmax
(С)
R
(мм)
R24
(мм)
S
(см)
06 15.09 ЮВ 7 4000 м мгла ясно +35.2 +29.4 72 +60 +63 опасность
перегрева
1005.4 1002.1
09 15.09 ЮВ 8 5000 м мгла ясно +37.6 +25.5 50 +52 +55 опасность
перегрева
1004.9 1001.6
12 15.09 В 3 5000 м мгла ясно +37.6 +26.7 54 +54 +60 опасность
перегрева
1003.5 1000.2
15 15.09 Ю 3 5000 м мгла ясно +33.4 +27.0 69 +51 +51 опасность
перегрева
1003.7 1000.4 +37.8
18 15.09 СВ 2 5000 м мгла ясно +31.6 +27.2 78 +50 +50 опасность
перегрева
1004.6 1001.3
21 15.09 В 3 5000 м дымка ясно +31.4 +28.4 84 +53 +53 опасность
перегрева
1004.0 1000.7
00 16.09 ЮВ 4 5000 м дымка ясно +30.6 +27.3 83 +49 +49 опасность
перегрева
1003.4 1000.1
03 16.09 В 5 4000 м дымка ясно +31.0 +28.4 86 +52 +52 опасность
перегрева
1005.0 1001.6 +30.6
09 16.09 В 5 5000 м мгла ясно +36.8 +27.2 58 +55 +64 опасность
перегрева
1004.5 1001.2
12 16.09 ЮВ 7 6000 м мгла ясно +36.2 +26.0 56 +52 +54 опасность
перегрева
1002.8 999.5
15 16.09 Ю 2 7000 м мгла ясно +33.6 +25.6 63 +48 +48 опасность
перегрева
1003.2 999.9 +38.0
18 16.09 СВ 2 6000 м мгла ясно +31.8 +25.4 69 +46 +46 опасность
перегрева
1003.9 1000.6
00 17.09 В 3 6000 м мгла ясно +31.4 +25.7 72 +46 +46 опасность
перегрева
1002.5 999.2
03 17.09 В 2 6000 м мгла ясно +30.4 +26.4 79 +46 +47 опасность
перегрева
1003.8 1000.5 +30.2
06 17.09 В 3 6000 м мгла ясно +35.2 +27.3 64 +54 +64 опасность
перегрева
1005.1 1001.8
09 17.09 ЮВ 7 6000 м мгла ясно +36.0 +26.1 57 +52 +57 опасность
перегрева
1004.0 1000.7
12 17.09 ЮВ 5 8000 м мгла ясно +35.2 +26.3 60 +51 +55 опасность
перегрева
1002.6 999.3
15 17.09 ЮВ 3 7000 м мгла ясно +32.6 +25.7 67 +48 +48 опасность
перегрева
1003.0 999.7 +36.4
18 17.09 В 2 7000 м мгла ясно +31.2 +25.3 71 +45 +45 опасность
перегрева
1004.0 1000.7
21 17.09 В 5 7000 м мгла ясно +31.4 +25.2 70 +45 +45 опасность
перегрева
1003.3 1000.0
00 18.09 В 3 8000 м мгла ясно +31.4 +24.6 67 +44 +44 опасность
перегрева
1003.4 1000.1
03 18.09 В 3 8000 м мгла ясно +31.0 +23.9 66 +43 +43 опасность
перегрева
1004.8 1001.5 +30.4
06 18.09 В 5 8000 м мгла ясно +35.2 +23.9 52 +47 +53 опасность
перегрева
1006.7 1003.4
09 18.09 ЮВ 10 8000 м мгла ясно +35.6 +23.4 49 +46 +47 опасность
перегрева
1005.7 1002.4
12 18.09 ЮВ 5 8000 м мгла ясно +35.4 +24.5 53 +48 +51 опасность
перегрева
1004.2 1000.9
15 18.09 ЮВ 2 6000 м мгла ясно +33.0 +24.9 63 +47 +47 опасность
перегрева
1004.7 1001.4 +36.4
18 18.09 В 3 6000 м мгла ясно +31.2 +25.3 71 +45 +45 опасность
перегрева
1005.7 1002.4
21 18.09 В 3 6000 м мгла ясно +30.8 +26.1 76 +46 +46 опасность
перегрева
1005.3 1002.0
00 19.09 ЮВ 3 5000 м мгла ясно +29.0 +24.8 78 +41 +41 опасность
перегрева
1004.9 1001.6
03 19.09 В 3 5000 м дымка 3/3 750 м
[Cu hum]
+29.8 +28.2 91 +50 +50 опасность
перегрева
1006.7 1003.4 +29.0
06 19.09 ЮВ 5 6000 м мгла ясно +33.6 +26.4 66 +50 +56 опасность
перегрева
1008.5 1005.2
09 19.09 ЮВ 4 6000 м мгла ясно +35.2 +25.8 58 +50 +62 опасность
перегрева
1007.1 1003.8
12 19.09 Ю 3 6000 м мгла ясно +35.4 +26.0 58 +51 +56 опасность
перегрева
1005.4 1002.1
15 19.09 З 2 7000 м мгла ясно +32.8 +26.9 71 +50 +50 опасность
перегрева
1005.0 1001.6 +36.2
18 19.09 штиль 0 6000 м дымка ясно +31.0 +27.2 80 +49 +49 опасность
перегрева
1005.7 1002.3
21 19.09 З 3 6000 м дымка ясно +30.2 +27.3 85 +48 +48 опасность
перегрева
1003.9 1000.6
00 20.09 СЗ 2 5000 м дымка ясно +29.6 +27.8 90 +48 +48 опасность
перегрева
1004.0 1000.7
03 20.09 штиль 0 7000 м дымка 6/5 750 м
[Frnb Ac trans]
+29.8 +28.2 91 +50 +50 опасность
перегрева
1005.2 1001.9 +28.8
06 20.09 штиль 0 8000 м мгла 4/4 900 м
[Cu hum]
+33.4 +28.0 73 +54 +63 опасность
перегрева
1006.7 1003.4
09 20.09 Ю 3 8000 м мгла 6/6 900 м
[Sc diur, vesp]
+35.0 +27.7 66 +55 +61 опасность
перегрева
1006.2 1002.8
12 20.09 З 2 8000 м мгла ясно +35.2 +26.7 62 +53 +59 опасность
перегрева
1004.3 1001.0
15 20.09 СЗ 2 7000 м мгла ясно +32.8 +27.1 72 +51 +51 опасность
перегрева
1004.4 1001.1 +36.0
18 20.09 З 2 6000 м мгла ясно +31.6 +27.2 78 +50 +50 опасность
перегрева
1005.4 1002.1
21 20.09 ЮЗ 2 5000 м дымка ясно +30.8 +28.4 87 +52 +52 опасность
перегрева
1004.3 1001.0
00 21.09 штиль 0 5000 м дымка ясно +30.6 +29.1 92 +54 +54 опасность
перегрева
1004.1 1000.8
03 21.09 В 2 3500 м дымка 4/1 1000 м
[Sc Ac trans]
+30.6 +28.7 90 +53 +53 опасность
перегрева
1006.0 1002.6 +30.6
06 21.09 ЮВ 5 5000 м мгла 3/1 900 м
[Cu hum Ac trans]
+33.4 +26.2 66 +50 +54 опасность
перегрева
1008.0 1004.7
09 21.09 СВ 3 6000 м мгла 1/1 900 м
[Cu hum]
+36.4 +26.3 56 +52 +65 опасность
перегрева
1007.1 1003.8
12 21.09 ЮЗ 3 7000 м мгла ясно +36.2 +26.0 56 +52 +57 опасность
перегрева
1005.4 1002.1
15 21.09 СЗ 2 7000 м мгла 4/0
[Ac trans Ci fib]
+33.6 +24.3 58 +46 +46 опасность
перегрева
1006.1 1002.8 +37.4
18 21.09 штиль 0 7000 м мгла ясно +32.0 +27.9 79 +52 +52 опасность
перегрева
1006.8 1003.5
21 21.09 СЗ 3 3000 м дымка ясно +31.2 +29.6 91 +56 +56 опасность
перегрева
1005.7 1002.4
00 22.09 штиль 0 6000 м дымка ясно +30.0 +27.8 88 +49 +49 опасность
перегрева
1005.1 1001.8
03 22.09 ЮВ 3 4000 м дымка ясно +29.2 +27.1 88 +46 +46 опасность
перегрева
1006.2 1002.9 +29.0

 

Местоположение метеостанции Kish Island (Иран): широта 26.50 долгота 53.98 высота над уровнем моря 30 м.

В архиве по умолчанию представлена погода в Kish Island за последнюю неделю. Архивные данные за месяц целиком и за предыдущие месяцы, начиная с января 2011 года, Вы можете получить, выбрав интересующий диапазон дат из раскрывающегося списка и нажав кнопку "Ввод!".


*Определитесь, кто Вы:
робот инопланетянин человек

Внимание! Время в таблицах - всемирное. Для получения местного времени необходимо прибавить поправку, которая в Kish Island равна 3.5 ч.

Смотрите также архив погоды в соседних городах и на ближайших метеорологических станциях:

Погода в Bandar Lengeh (Иран) (85 км)
Погода в Sirri Island (Иран) (87 км)
Погода в Abu Musa Island (Иран) (113 км)
Погода в Dubai (ОАЭ) (194 км)
Погода в Sharjah (ОАЭ) (202 км)
Погода в Dubai Al Maktoum Int Airport (ОАЭ) (214 км)
Погода в Ras Al Khaimah Int Airport (ОАЭ) (218 км)
Погода в Khasab Airport (Оман) (227 км)
Погода в Khasab (Оман) (228 км)
Погода в Abu Dhabi Bateen Airport (ОАЭ) (235 км)

Пояснения к столбцам:

Ветер - указаны скорость ветра в м/с - средняя за 10 мин, порывы в срок и между сроками (в фигурных скобках) и направление, откуда дует ветер: С - северный, СВ - северо-восточный, В - восточный, ЮВ - юго-восточный, Ю - южный, ЮЗ - юго-западный, З - западный, СЗ - северо-западный.
Видимость - горизонтальная дальность видимости в метрах или километрах. При видимости от 1 до 10 км при отсутствии осадков обычно наблюдается дымка, при ухудшении видимости до 1 км и менее - туман. В сухую погоду видимость может ухудшаться дымом, пылью или мглою.
Явления - указаны атмосферные явления, наблюдавшиеся в срок или в последний час перед сроком; фигурными скобками обозначены явления, наблюдавшиеся между сроками (за 1-3 часа до срока); квадратными скобками обозначены град или гололедные отложения с указанием их диаметра в мм.
Облачность - указаны через наклонную черту общая и нижняя облачность в баллах и высота нижней границы облаков в метрах; квадратными скобками обозначены формы облаков: Ci - перистые, Cs - перисто-слоистые, Cc - перисто-кучевые, Ac - высококучевые, As - высокослоистые, Sc - слоисто-кучевые, Ns - слоисто-дождевые, Cu - кучевые, Cb - кучево-дождевые. Подробнее классификацию облаков см. в Атласе облаков (PDF).
T - Температура воздуха - температура, измеренная на высоте 2 м над землей.
Td - Температура точки росы - температура, при понижении до которой содержащийся в воздухе водяной пар достигнет насыщения.
f - Относительная влажность воздуха - влажноcть воздуха, измеренная на высоте 2 м над землей.
Te - Эффективная температура - температура, которую ощущает одетый по сезону человек в тени. Характеристика душности погоды. При расчете учитывается влияние влажности воздуха и скорости ветра на теплоощущения человека.
Tes - Эффективная температура на солнце - температура, которую ощущает человек, с поправкой на солнечный нагрев. Характеристика знойности погоды. Зависит от высоты солнца над горизонтом, облачности и скорости ветра. Ночью, в пасмурную погоду, а также при ветре 12 м/с и более поправка равна нулю.
P - Атмосферное давление - приведенное к уровню моря атмосферное давление.
Po - Атмосферное давление - измеренное на уровне метеостанции атмосферное давление.
Tmin - Минимальная температура - минимум температуры воздуха на высоте 2 м над землей.
Tmax - Максимальная температура - максимум температуры воздуха на высоте 2 м над землей.
R - Количество осадков - Количество выпавших осадков за период времени, мм. При наведении курсора мыши на число - период времени, за который выпало указанное количество осадков.
R24 - Количество осадков - Количество выпавших осадков за 24 часа, мм.
S - Снежный покров - Высота снежного покрова, см. При наведении курсора мыши на число - состояние снежного покрова и степень покрытия местности в баллах.